C/2018 M1 ( Catalina )

Japanese version
Home page
Updated on September 22, 2018

---------------------------------------------------------------------

* Profile

Discovery Date June 25, 2018
Magnitude 17.6 mag
Discoverer H. Groeller and R. A. Kowalski (Catalina Sky Survey)

* Orbital Elements

Epoch 2018 July 21.0 TT = JDT 2458320.5
T 2018 July 10.03373 TT                                 MPCW
q   1.3037561            (2000.0)            P               Q
n   0.00975784     Peri.   14.14093     +0.97632037     +0.04175167
a  21.6887083      Node   339.47763     -0.20366758     +0.50816422
e   0.9398878      Incl.   37.26287     +0.07292502     +0.86024759
P 101
From 57 observations 2018 June 25-July 13, mean residual 0".8.

* Magnitudes Graph

        m1 = 15.5 + 5 log d + 10.0 log r

---------------------------------------------------------------------

The orbital elements are published on M.P.E.C. 2018-N83.
The magnitudes graphs are made with Comet for Windows.

---------------------------------------------------------------------

Copyright(C) Seiichi Yoshida (comet@aerith.net). All rights reserved.